This is the latest recevied weather packets stored in our database for station/object DG4DAZ-6. If no packets are shown the sender has not sent any weather packets the latest 10 day(s).
| Time | Temp. | Humidity | Pressure | Rain* | Wind** | Luminosity | Snow |
|---|---|---|---|---|---|---|---|
| 1777828283 | 15° C | 81% | 1010.5 hPa | 0 mm | - | 81 W/m² | - |
| 1777827684 | 15.56° C | 79% | 1010.5 hPa | 0 mm | - | 82 W/m² | - |
| 1777827083 | 16.11° C | 78% | 1010.5 hPa | 0 mm | - | 103 W/m² | - |
| 1777826483 | 16.11° C | 74% | 1010.5 hPa | 0 mm | - | 107 W/m² | - |
| 1777825883 | 16.67° C | 72% | 1010.5 hPa | 0 mm | - | 131 W/m² | - |
| 1777825284 | 16.67° C | 69% | 1010.4 hPa | 0 mm | - | 141 W/m² | - |
| 1777824683 | 17.22° C | 66% | 1010.4 hPa | 0 mm | - | 172 W/m² | - |
| 1777824083 | 17.22° C | 65% | 1010.3 hPa | 0 mm | - | 220 W/m² | - |
| 1777823483 | 17.22° C | 64% | 1010.2 hPa | 0 mm | - | 169 W/m² | - |
| 1777822883 | 17.22° C | 62% | 1010.1 hPa | 0 mm | - | 178 W/m² | - |
| 1777822283 | 17.78° C | 62% | 1010.1 hPa | 0 mm | - | 198 W/m² | - |
| 1777821682 | 17.78° C | 63% | 1010.1 hPa | 0 mm | - | 223 W/m² | - |
| 1777821084 | 17.22° C | 64% | 1010.1 hPa | 0 mm | - | 230 W/m² | - |
| 1777820483 | 17.22° C | 65% | 1010.2 hPa | 0 mm | - | 200 W/m² | - |
| 1777819884 | 17.22° C | 64% | 1010.3 hPa | 0 mm | - | 173 W/m² | - |
| 1777819284 | 17.78° C | 63% | 1010.3 hPa | 0 mm | - | 233 W/m² | - |
| 1777818684 | 17.78° C | 63% | 1010.3 hPa | 0 mm | - | 239 W/m² | - |
| 1777818083 | 17.22° C | 64% | 1010.3 hPa | 0 mm | - | 349 W/m² | - |
| 1777817483 | 17.22° C | 63% | 1010.4 hPa | 0 mm | - | 195 W/m² | - |
| 1777816884 | 18.33° C | 60% | 1010.5 hPa | 0 mm | - | 176 W/m² | - |
| 1777816283 | 18.89° C | 56% | 1010.3 hPa | 0 mm | - | 174 W/m² | - |
| 1777815682 | 19.44° C | 54% | 1010.5 hPa | 0 mm | - | 284 W/m² | - |
| 1777815084 | 18.89° C | 52% | 1010.4 hPa | 0 mm | - | 406 W/m² | - |
| 1777814482 | 18.89° C | 52% | 1010.4 hPa | 0 mm | - | 206 W/m² | - |
| 1777813884 | 18.89° C | 52% | 1010.5 hPa | 0 mm | - | 232 W/m² | - |
* Rain latest hour (hover to see other rain measurements)
** Current wind speed in m/s (hover to see current wind gust speed)